SKBO

El Dorado International Airport

Code ICAO SKBO
Code IATA BOG
Nom El Dorado International Airport
Emplacement Bogota, Bogota-D-C-, CO
Élévation 8361 pieds / 2548.4 mètres
Latitude 4.70159000
Longitude -74.14690000
METAR SKBO 061000Z VRB02KT 9999 FEW020 SCT070 12/11 Q1028 NOSIG RMK A3036
Informations extras Afficher cartes
Piste Longueur Largeur Surface Élévation
13L 12467 ft 148 ft ASP 8354 ft
13R 12467 ft 148 ft ASP 8350 ft
31R 12467 ft 148 ft ASP 8354 ft
31L 12467 ft 148 ft ASP 8355 ft